QPF
0.02 0.03 0.02 0.02 0.02 0.01 0.01 0.01 0.02 0.02 0.02 0.01 0.00 0.00 0.00 0.00 0.00 0.00 0.01 0.01 0.00 0.00 0.00 0.00 0.00 0.00 0.00 0.00 0.00 0.00 0.01 0.01 0.01 0.00 0.00 0.00 0.00 0.00
0.03 0.03 0.02 0.02 0.02 0.02 0.01 0.01 0.01 0.01 0.02 0.01 0.01 0.00 0.00 0.00 0.00 0.00 0.01 0.01 0.00 0.00 0.00 0.00 0.00 0.00 0.00 0.00 0.00 0.00 0.00 0.00 0.00 0.00 0.00 0.00 0.00 0.00
0.03 0.03 0.03 0.02 0.03 0.02 0.01 0.01 0.01 0.01 0.01 0.01 0.01 0.01 0.01 0.01 0.01 0.00 0.00 0.00 0.01 0.01 0.00 0.00 0.00 0.00 0.00 0.00 0.00 0.00 0.00 0.00 0.00 0.00 0.00 0.00 0.00 0.00
0.04 0.03 0.03 0.03 0.03 0.02 0.02 0.01 0.01 0.01 0.01 0.02 0.02 0.01 0.01 0.01 0.00 0.00 0.00 0.00 0.00 0.00 0.00 0.00 0.00 0.00 0.00 0.00 0.00 0.00 0.00 0.00 0.00 0.00 0.00 0.00 0.00 0.00
0.05 0.05 0.04 0.04 0.03 0.03 0.03 0.02 0.02 0.02 0.01 0.02 0.02 0.01 0.01 0.01 0.01 0.01 0.00 0.01 0.00 0.00 0.00 0.00 0.00 0.00 0.00 0.00 0.00 0.00 0.00 0.00 0.00 0.00 0.00 0.00 0.00 0.00
0.04 0.04 0.04 0.04 0.05 0.05 0.03 0.03 0.02 0.02 0.01 0.01 0.01 0.01 0.01 0.01 0.01 0.01 0.02 0.01 0.01 0.00 0.00 0.00 0.00 0.00 0.00 0.00 0.00 0.00 0.00 0.00 0.00 0.00 0.00 0.00 0.00 0.00
0.05 0.06 0.06 0.05 0.05 0.06 0.04 0.04 0.04 0.03 0.03 0.02 0.02 0.02 0.02 0.02 0.02 0.02 0.02 0.02 0.01 0.00 0.01 0.00 0.01 0.00 0.00 0.00 0.00 0.00 0.00 0.00 0.00 0.00 0.00 0.00 0.00 0.00
0.08 0.07 0.06 0.06 0.06 0.05 0.04 0.03 0.03 0.03 0.03 0.03 0.03 0.03 0.02 0.02 0.01 0.01 0.01 0.01 0.01 0.00 0.00 0.00 0.00 0.00 0.00 0.00 0.00 0.00 0.00 0.00 0.00 0.00 0.00 0.00 0.00 0.00
0.10 0.08 0.07 0.06 0.06 0.05 0.04 0.03 0.02 0.02 0.02 0.02 0.02 0.02 0.02 0.01 0.01 0.01 0.01 0.01 0.01 0.00 0.00 0.00 0.00 0.00 0.00 0.00 0.00 0.00 0.00 0.00 0.00 0.00 0.00 0.00 0.00 0.00
0.09 0.08 0.07 0.06 0.05 0.05 0.04 0.04 0.04 0.04 0.03 0.03 0.02 0.02 0.01 0.01 0.01 0.01 0.01 0.01 0.01 0.00 0.00 0.00 0.00 0.00 0.00 0.00 0.00 0.00 0.00 0.00 0.00 0.00 0.00 0.00 0.00 0.00
0.05 0.05 0.04 0.04 0.05 0.05 0.05 0.05 0.05 0.06 0.06 0.06 0.04 0.03 0.02 0.01 0.01 0.01 0.01 0.01 0.01 0.00 0.00 0.00 0.00 0.00 0.00 0.00 0.00 0.00 0.00 0.00 0.00 0.00 0.00 0.00 0.00 0.00
0.03 0.03 0.05 0.05 0.06 0.06 0.05 0.04 0.04 0.04 0.03 0.03 0.03 0.02 0.01 0.01 0.01 0.00 0.00 0.00 0.00 0.00 0.00 0.00 0.00 0.00 0.00 0.00 0.00 0.00 0.00 0.00 0.00 0.00 0.00 0.00 0.00 0.00
0.02 0.02 0.04 0.05 0.04 0.04 0.03 0.02 0.02 0.01 0.01 0.01 0.01 0.01 0.00 0.00 0.00 0.00 0.00 0.00 0.00 0.00 0.00 0.00 0.00 0.00 0.00 0.00 0.00 0.00 0.00 0.00 0.00 0.00 0.00 0.00 0.00 0.00
0.04 0.04 0.04 0.04 0.03 0.02 0.02 0.02 0.02 0.02 0.01 0.01 0.01 0.01 0.01 0.00 0.00 0.00 0.00 0.00 0.00 0.00 0.00 0.00 0.00 0.01 0.00 0.00 0.00 0.00 0.00 0.00 0.00 0.00 0.00 0.00 0.00 0.00
0.05 0.04 0.04 0.03 0.03 0.03 0.03 0.03 0.03 0.02 0.02 0.02 0.01 0.01 0.01 0.00 0.00 0.00 0.00 0.00 0.00 0.00 0.00 0.00 0.00 0.01 0.01 0.00 0.00 0.00 0.00 0.00 0.00 0.00 0.00 0.00 0.01 0.01
0.04 0.05 0.04 0.03 0.03 0.02 0.02 0.01 0.01 0.01 0.01 0.01 0.00 0.00 0.00 0.00 0.00 0.00 0.00 0.00 0.00 0.00 0.00 0.00 0.00 0.00 0.00 0.00 0.00 0.00 0.01 0.01 0.00 0.00 0.01 0.01 0.01 0.01
0.05 0.04 0.03 0.02 0.01 0.01 0.00 0.00 0.00 0.00 0.00 0.00 0.00 0.00 0.00 0.00 0.00 0.00 0.00 0.00 0.00 0.00 0.00 0.00 0.00 0.00 0.00 0.01 0.01 0.01 0.01 0.01 0.01 0.01 0.01 0.01 0.01 0.01
0.02 0.02 0.01 0.01 0.00 0.00 0.00 0.00 0.00 0.00 0.00 0.00 0.00 0.00 0.00 0.00 0.00 0.00 0.00 0.00 0.00 0.00 0.00 0.00 0.00 0.00 0.00 0.00 0.00 0.01 0.01 0.01 0.01 0.01 0.01 0.01 0.01 0.01
0.02 0.02 0.01 0.01 0.01 0.01 0.00 0.00 0.00 0.00 0.00 0.00 0.00 0.00 0.00 0.00 0.00 0.00 0.00 0.00 0.00 0.00 0.00 0.00 0.01 0.01 0.01 0.00 0.00 0.00 0.01 0.01 0.01 0.01 0.01 0.01 0.01 0.01
0.01 0.00 0.00 0.00 0.00 0.00 0.00 0.00 0.00 0.00 0.00 0.00 0.00 0.00 0.00 0.00 0.00 0.00 0.00 0.00 0.00 0.00 0.00 0.00 0.01 0.01 0.01 0.01 0.01 0.01 0.00 0.01 0.01 0.01 0.01 0.01 0.01 0.01
0.00 0.00 0.00 0.00 0.00 0.00 0.00 0.00 0.00 0.00 0.00 0.00 0.00 0.00 0.00 0.00 0.00 0.00 0.00 0.00 0.00 0.00 0.00 0.01 0.01 0.01 0.01 0.02 0.02 0.01 0.01 0.01 0.01 0.01 0.01 0.01 0.01 0.01
0.00 0.00 0.00 0.00 0.00 0.00 0.00 0.00 0.00 0.00 0.00 0.00 0.00 0.00 0.00 0.00 0.00 0.00 0.00 0.00 0.00 0.00 0.01 0.01 0.01 0.01 0.01 0.01 0.01 0.01 0.01 0.01 0.00 0.00 0.01 0.01 0.02 0.01
0.00 0.00 0.00 0.00 0.00 0.00 0.00 0.00 0.00 0.00 0.00 0.00 0.00 0.00 0.00 0.00 0.00 0.00 0.00 0.00 0.00 0.00 0.00 0.01 0.01 0.02 0.01 0.01 0.02 0.01 0.01 0.01 0.00 0.00 0.01 0.01 0.01 0.01
MSLP
1017.99 1018.22 1018.41 1018.57 1018.68 1018.76 1018.80 1018.83 1018.84 1018.84 1018.85 1018.85 1018.86 1018.87 1018.87 1018.88 1018.89 1018.92 1018.96 1019.02 1019.09 1019.19 1019.28 1019.36 1019.42 1019.45 1019.45 1019.41 1019.35 1019.29 1019.23 1019.20 1019.19 1019.21 1019.25 1019.29 1019.32 1019.33
1017.78 1018.02 1018.21 1018.36 1018.47 1018.54 1018.59 1018.62 1018.67 1018.72 1018.79 1018.86 1018.92 1018.97 1019.01 1019.01 1019.00 1018.97 1018.94 1018.91 1018.91 1018.92 1018.95 1018.99 1019.04 1019.07 1019.09 1019.09 1019.07 1019.04 1019.00 1018.97 1018.96 1018.95 1018.95 1018.95 1018.95 1018.92
1017.69 1017.94 1018.15 1018.30 1018.40 1018.47 1018.52 1018.58 1018.65 1018.75 1018.87 1019.00 1019.12 1019.22 1019.28 1019.29 1019.24 1019.16 1019.05 1018.93 1018.82 1018.74 1018.70 1018.69 1018.71 1018.74 1018.79 1018.83 1018.85 1018.86 1018.86 1018.85 1018.83 1018.80 1018.76 1018.72 1018.66 1018.59
1017.77 1018.07 1018.30 1018.47 1018.58 1018.65 1018.70 1018.77 1018.87 1019.00 1019.16 1019.33 1019.50 1019.64 1019.71 1019.71 1019.64 1019.49 1019.30 1019.08 1018.87 1018.68 1018.55 1018.48 1018.46 1018.49 1018.55 1018.63 1018.70 1018.76 1018.79 1018.80 1018.78 1018.74 1018.67 1018.58 1018.47 1018.35
1018.11 1018.46 1018.73 1018.92 1019.05 1019.13 1019.19 1019.26 1019.36 1019.51 1019.69 1019.89 1020.08 1020.23 1020.31 1020.29 1020.18 1019.97 1019.69 1019.37 1019.05 1018.76 1018.53 1018.38 1018.31 1018.32 1018.38 1018.48 1018.59 1018.69 1018.76 1018.80 1018.78 1018.73 1018.63 1018.51 1018.36 1018.19
1018.71 1019.12 1019.44 1019.66 1019.81 1019.90 1019.96 1020.03 1020.13 1020.26 1020.44 1020.64 1020.82 1020.96 1021.02 1020.98 1020.82 1020.55 1020.19 1019.78 1019.35 1018.96 1018.64 1018.40 1018.27 1018.24 1018.28 1018.38 1018.51 1018.63 1018.73 1018.79 1018.78 1018.73 1018.62 1018.46 1018.28 1018.07
1019.56 1020.02 1020.38 1020.64 1020.80 1020.90 1020.95 1021.01 1021.08 1021.19 1021.33 1021.50 1021.66 1021.77 1021.79 1021.71 1021.51 1021.18 1020.76 1020.27 1019.75 1019.27 1018.86 1018.54 1018.33 1018.24 1018.25 1018.32 1018.44 1018.57 1018.68 1018.74 1018.74 1018.69 1018.57 1018.40 1018.19 1017.96
1020.57 1021.07 1021.46 1021.74 1021.92 1022.01 1022.05 1022.07 1022.11 1022.17 1022.26 1022.38 1022.49 1022.55 1022.53 1022.41 1022.17 1021.80 1021.33 1020.79 1020.22 1019.66 1019.17 1018.78 1018.50 1018.33 1018.28 1018.31 1018.39 1018.49 1018.58 1018.64 1018.64 1018.58 1018.46 1018.28 1018.05 1017.80
1021.65 1022.16 1022.56 1022.85 1023.02 1023.10 1023.12 1023.10 1023.09 1023.09 1023.13 1023.17 1023.22 1023.23 1023.17 1023.01 1022.74 1022.35 1021.86 1021.30 1020.69 1020.10 1019.56 1019.10 1018.75 1018.51 1018.38 1018.34 1018.36 1018.41 1018.46 1018.49 1018.47 1018.39 1018.26 1018.07 1017.83 1017.56
1022.69 1023.18 1023.57 1023.84 1023.99 1024.05 1024.04 1023.99 1023.92 1023.87 1023.83 1023.81 1023.79 1023.74 1023.64 1023.46 1023.18 1022.79 1022.31 1021.75 1021.16 1020.56 1019.99 1019.49 1019.09 1018.78 1018.57 1018.44 1018.38 1018.36 1018.34 1018.31 1018.25 1018.14 1017.98 1017.77 1017.52 1017.23
1023.59 1024.04 1024.39 1024.63 1024.76 1024.79 1024.75 1024.67 1024.56 1024.45 1024.35 1024.27 1024.19 1024.09 1023.95 1023.75 1023.47 1023.10 1022.65 1022.13 1021.57 1021.00 1020.44 1019.93 1019.49 1019.12 1018.84 1018.62 1018.47 1018.35 1018.25 1018.14 1018.01 1017.85 1017.65 1017.41 1017.14 1016.83
1024.33 1024.71 1025.00 1025.20 1025.30 1025.31 1025.25 1025.14 1024.99 1024.84 1024.70 1024.56 1024.43 1024.28 1024.12 1023.91 1023.64 1023.30 1022.90 1022.44 1021.93 1021.40 1020.88 1020.38 1019.92 1019.51 1019.16 1018.87 1018.62 1018.40 1018.19 1018.00 1017.79 1017.56 1017.31 1017.03 1016.72 1016.39
1024.89 1025.19 1025.42 1025.57 1025.65 1025.64 1025.56 1025.44 1025.28 1025.11 1024.93 1024.75 1024.57 1024.39 1024.20 1023.98 1023.72 1023.41 1023.06 1022.66 1022.22 1021.75 1021.28 1020.80 1020.35 1019.92 1019.52 1019.15 1018.81 1018.49 1018.19 1017.90 1017.60 1017.29 1016.98 1016.65 1016.31 1015.96
1025.29 1025.51 1025.68 1025.80 1025.85 1025.83 1025.76 1025.64 1025.48 1025.30 1025.10 1024.90 1024.69 1024.48 1024.25 1024.02 1023.77 1023.48 1023.17 1022.82 1022.44 1022.03 1021.60 1021.16 1020.72 1020.28 1019.85 1019.43 1019.02 1018.61 1018.22 1017.83 1017.45 1017.07 1016.69 1016.31 1015.93 1015.56
1025.58 1025.73 1025.84 1025.92 1025.96 1025.96 1025.90 1025.80 1025.66 1025.49 1025.28 1025.06 1024.83 1024.58 1024.33 1024.08 1023.81 1023.53 1023.24 1022.92 1022.58 1022.22 1021.84 1021.43 1021.01 1020.57 1020.12 1019.65 1019.19 1018.72 1018.25 1017.78 1017.32 1016.87 1016.44 1016.02 1015.61 1015.23
1025.78 1025.87 1025.95 1026.01 1026.05 1026.07 1026.04 1025.97 1025.85 1025.70 1025.50 1025.27 1025.02 1024.75 1024.47 1024.18 1023.89 1023.59 1023.29 1022.98 1022.66 1022.32 1021.97 1021.58 1021.17 1020.74 1020.27 1019.79 1019.28 1018.76 1018.24 1017.72 1017.20 1016.70 1016.22 1015.77 1015.35 1014.96
1025.93 1025.98 1026.04 1026.09 1026.15 1026.18 1026.19 1026.16 1026.08 1025.95 1025.77 1025.54 1025.28 1024.98 1024.66 1024.34 1024.00 1023.67 1023.35 1023.02 1022.69 1022.35 1022.00 1021.62 1021.21 1020.77 1020.30 1019.80 1019.27 1018.72 1018.16 1017.60 1017.05 1016.52 1016.01 1015.55 1015.12 1014.75
1026.04 1026.07 1026.12 1026.18 1026.26 1026.32 1026.37 1026.37 1026.33 1026.23 1026.07 1025.85 1025.58 1025.26 1024.92 1024.55 1024.17 1023.80 1023.42 1023.06 1022.70 1022.33 1021.95 1021.56 1021.14 1020.68 1020.20 1019.68 1019.14 1018.57 1018.00 1017.42 1016.85 1016.31 1015.80 1015.33 1014.91 1014.54
1026.13 1026.16 1026.21 1026.29 1026.39 1026.48 1026.56 1026.60 1026.60 1026.53 1026.40 1026.19 1025.92 1025.58 1025.21 1024.81 1024.39 1023.96 1023.54 1023.12 1022.70 1022.29 1021.87 1021.44 1020.99 1020.51 1020.01 1019.47 1018.91 1018.33 1017.75 1017.17 1016.60 1016.05 1015.55 1015.09 1014.68 1014.33
1026.23 1026.26 1026.33 1026.42 1026.54 1026.66 1026.77 1026.85 1026.87 1026.84 1026.72 1026.53 1026.26 1025.93 1025.54 1025.11 1024.65 1024.17 1023.70 1023.22 1022.75 1022.28 1021.80 1021.32 1020.82 1020.30 1019.76 1019.20 1018.63 1018.04 1017.45 1016.86 1016.30 1015.76 1015.27 1014.82 1014.43 1014.10
1026.34 1026.39 1026.48 1026.60 1026.73 1026.88 1027.01 1027.11 1027.17 1027.15 1027.06 1026.88 1026.62 1026.29 1025.89 1025.44 1024.95 1024.44 1023.91 1023.38 1022.85 1022.31 1021.77 1021.23 1020.67 1020.11 1019.53 1018.93 1018.33 1017.72 1017.13 1016.54 1015.98 1015.46 1014.97 1014.54 1014.16 1013.83
1026.48 1026.57 1026.68 1026.82 1026.98 1027.14 1027.29 1027.41 1027.48 1027.48 1027.41 1027.24 1026.99 1026.66 1026.26 1025.80 1025.29 1024.75 1024.18 1023.60 1023.01 1022.41 1021.81 1021.20 1020.58 1019.96 1019.33 1018.70 1018.06 1017.44 1016.83 1016.24 1015.68 1015.16 1014.68 1014.26 1013.88 1013.54
1026.68 1026.80 1026.94 1027.11 1027.29 1027.46 1027.63 1027.76 1027.83 1027.84 1027.77 1027.62 1027.37 1027.04 1026.64 1026.17 1025.64 1025.08 1024.48 1023.85 1023.21 1022.56 1021.90 1021.23 1020.56 1019.88 1019.20 1018.53 1017.87 1017.22 1016.59 1016.00 1015.44 1014.92 1014.44 1014.01 1013.62 1013.28
Thickness
5720 5718 5719 5721 5720 5720 5720 5719 5714 5709 5710 5713 5715 5713 5711 5709 5706 5705 5704 5700 5698 5697 5696 5694 5693 5692 5691 5690 5689 5687 5686 5686 5685 5684 5684 5684 5683 5683
5717 5716 5714 5716 5716 5715 5715 5714 5713 5709 5707 5710 5709 5710 5704 5706 5700 5699 5698 5695 5693 5691 5690 5688 5687 5686 5685 5683 5682 5681 5680 5679 5678 5678 5677 5677 5677 5676
5712 5711 5709 5709 5709 5710 5709 5709 5708 5706 5702 5704 5705 5702 5697 5695 5694 5692 5693 5690 5688 5685 5682 5681 5679 5678 5677 5676 5675 5673 5672 5671 5670 5670 5669 5669 5668 5668
5708 5707 5705 5704 5702 5703 5703 5702 5701 5699 5697 5694 5694 5693 5688 5686 5685 5683 5685 5684 5681 5677 5674 5672 5671 5669 5668 5667 5665 5664 5663 5662 5660 5660 5659 5659 5659 5659
5703 5701 5700 5698 5695 5695 5693 5694 5693 5693 5690 5688 5686 5683 5682 5679 5677 5676 5676 5672 5672 5669 5666 5663 5661 5659 5657 5656 5654 5653 5651 5650 5649 5648 5648 5647 5647 5647
5696 5695 5693 5691 5689 5687 5685 5683 5683 5682 5680 5679 5677 5675 5672 5669 5667 5666 5665 5663 5661 5660 5656 5654 5651 5649 5647 5645 5642 5640 5639 5637 5636 5635 5635 5634 5634 5635
5688 5686 5684 5681 5679 5678 5679 5676 5674 5672 5671 5669 5667 5664 5660 5656 5654 5653 5652 5650 5650 5648 5645 5644 5643 5641 5638 5635 5631 5627 5624 5623 5622 5621 5620 5620 5620 5620
5679 5676 5673 5670 5667 5665 5662 5660 5659 5659 5658 5656 5654 5649 5644 5641 5638 5639 5638 5637 5635 5634 5631 5631 5630 5628 5625 5622 5617 5613 5610 5608 5607 5606 5605 5605 5605 5605
5670 5667 5665 5661 5658 5655 5650 5647 5644 5641 5640 5640 5637 5632 5629 5626 5623 5624 5621 5619 5616 5616 5615 5616 5616 5613 5610 5607 5602 5597 5594 5592 5590 5590 5589 5589 5589 5589
5660 5657 5653 5650 5647 5644 5641 5637 5632 5627 5626 5624 5619 5615 5611 5608 5606 5606 5604 5605 5604 5604 5600 5599 5599 5597 5595 5591 5587 5583 5579 5576 5575 5573 5573 5572 5572 5573
5647 5644 5641 5637 5632 5630 5629 5624 5619 5614 5608 5605 5601 5597 5594 5592 5590 5592 5591 5592 5592 5590 5586 5581 5581 5579 5578 5577 5573 5568 5565 5562 5559 5558 5556 5556 5556 5557
5634 5630 5625 5622 5618 5617 5616 5612 5607 5601 5598 5594 5589 5585 5583 5579 5576 5573 5573 5573 5573 5573 5568 5562 5561 5560 5562 5561 5556 5552 5550 5548 5545 5544 5542 5540 5538 5539
5625 5618 5611 5606 5604 5601 5600 5596 5590 5586 5585 5582 5579 5575 5571 5567 5563 5559 5554 5553 5552 5550 5546 5541 5540 5538 5537 5539 5538 5535 5533 5531 5530 5529 5527 5525 5522 5520
5612 5605 5597 5592 5589 5586 5583 5577 5574 5572 5573 5570 5566 5563 5558 5553 5547 5542 5537 5533 5529 5527 5522 5518 5518 5516 5516 5518 5520 5518 5516 5514 5512 5512 5510 5509 5508 5507
5596 5588 5583 5579 5575 5572 5567 5564 5563 5562 5559 5556 5551 5546 5541 5536 5531 5528 5524 5519 5515 5513 5509 5502 5498 5497 5495 5497 5499 5499 5499 5498 5497 5496 5494 5493 5493 5493
5581 5574 5570 5566 5563 5558 5555 5553 5550 5545 5543 5539 5534 5530 5526 5522 5519 5514 5510 5506 5504 5501 5496 5489 5484 5480 5480 5479 5479 5481 5481 5482 5481 5480 5479 5479 5479 5480
5571 5566 5562 5559 5555 5550 5545 5540 5536 5532 5528 5523 5519 5515 5511 5507 5503 5498 5493 5490 5488 5486 5482 5477 5472 5468 5465 5464 5466 5466 5466 5466 5466 5465 5464 5468 5469 5469
5559 5556 5550 5546 5541 5537 5533 5528 5522 5517 5511 5507 5503 5499 5495 5491 5487 5483 5479 5475 5472 5469 5466 5463 5459 5458 5456 5455 5450 5450 5451 5450 5451 5451 5452 5456 5459 5459
5547 5542 5537 5532 5528 5523 5518 5514 5508 5502 5495 5493 5488 5483 5479 5475 5472 5468 5464 5460 5457 5454 5451 5448 5446 5444 5442 5443 5441 5435 5435 5437 5438 5441 5443 5445 5448 5450
5535 5529 5524 5519 5514 5509 5504 5499 5494 5488 5483 5478 5474 5469 5464 5461 5458 5454 5450 5445 5442 5440 5438 5436 5433 5429 5426 5426 5428 5428 5425 5426 5428 5431 5434 5436 5439 5441
5522 5516 5511 5506 5501 5495 5489 5483 5479 5474 5468 5464 5460 5454 5451 5448 5444 5441 5438 5432 5428 5429 5427 5425 5421 5414 5414 5416 5419 5422 5421 5419 5417 5419 5423 5427 5432 5435
5510 5504 5498 5492 5486 5481 5475 5470 5467 5462 5456 5453 5448 5443 5439 5436 5433 5429 5426 5424 5421 5419 5416 5415 5412 5411 5410 5411 5412 5414 5416 5415 5415 5415 5415 5416 5418 5423
5496 5491 5486 5480 5474 5468 5463 5458 5454 5450 5444 5440 5436 5432 5428 5426 5422 5420 5417 5415 5413 5410 5408 5407 5406 5405 5405 5404 5405 5407 5409 5410 5412 5414 5415 5412 5411 5412